[[[{"header":{"parameterUnit":"kt","parameterCategory":2,"dx":1,"dy":1,"la1":30.253999710083008,"la2":30.299108505249023,"lo1":-89.0895004272461,"lo2":-89.04439544677734,"nx":28,"ny":28,"refTime":"2022-10-16T21:00:00:Z","depth":0,"parameterNumber":1,"parameterNumberName":"U-component_of_WINDS"},"data":[0.3801,0.3753,0.3764,0.3713,0.3714,0.3681,0.3672,0.3662,0.3656,0.3617,0.3597,0.3601,0.3598,0.3575,0.3552,0.3554,0.3542,0.3519,0.3525,0.3623,0.3637,0.3651,0.3662,0.3517,0.3517,0.342,0.342,0.3419,0.3874,0.3875,0.3852,0.3836,0.3816,0.3845,0.3834,0.3815,0.3784,0.3777,0.3756,0.3722,0.3696,0.3701,0.3677,0.3653,0.3664,0.3646,0.3646,0.3645,0.3751,0.3764,0.3638,0.3638,0.3638,0.3638,0.3638,0.3638,0.4011,0.3982,0.3978,0.3952,0.3947,0.3936,0.3909,0.3916,0.3892,0.3869,0.3885,0.385,0.3843,0.3818,0.3811,0.3783,0.3804,0.3786,0.3781,0.3775,0.3768,0.3904,0.378,0.378,0.378,0.3781,0.3781,0,0.4112,0.4123,0.4101,0.4082,0.4064,0.405,0.4038,0.4022,0.4046,0.4025,0.3995,0.3979,0.3948,0.3919,0.3899,0.3895,0.3919,0.3924,0.3911,0.3901,0.3896,0.3896,0.4067,0.3926,0.3927,0.3928,0.3929,0.393,0.4248,0.4213,0.4214,0.4197,0.4193,0.4165,0.415,0.4174,0.4157,0.4145,0.4117,0.409,0.4069,0.4019,0.4023,0.3999,0.401,0.3955,0.4006,0.3999,0.4006,0.4007,0.4003,0.3943,0.3941,0.394,0.3939,0,0.4323,0.434,0.4288,0.4292,0.4292,0.4253,0.4256,0.4227,0.4236,0.4197,0.4189,0.4201,0.4171,0.4185,0.4152,0.416,0.4095,0.4108,0.4098,0.41,0.4051,0.4054,0.3892,0.3871,0.4025,0.4024,0.4022,0,0.4444,0.4397,0.4423,0.4393,0.4341,0.4366,0.4314,0.4316,0.4311,0.428,0.4312,0.4283,0.4306,0.4278,0.4289,0.4239,0.4233,0.4235,0.4238,0.423,0.423,0.4218,0.4223,0.4249,0.425,0.4251,0.4251,0,0.4557,0.4517,0.4467,0.446,0.4458,0.4434,0.4432,0.4425,0.441,0.4392,0.4382,0.4359,0.4345,0.4327,0.4341,0.4375,0.4281,0.433,0.4282,0.4281,0.4257,0.4258,0.4114,0.4252,0.4252,0.4253,0.4253,0,0.4655,0.4639,0.4565,0.4564,0.4552,0.4519,0.4499,0.4474,0.4465,0.447,0.4456,0.4477,0.4436,0.4484,0.4426,0.4466,0.4451,0.4449,0.4446,0.444,0.4492,0.4406,0.4271,0.4255,0.4439,0.4441,0.4442,0,0.478,0.471,0.4731,0.466,0.4629,0.4667,0.4631,0.4622,0.4626,0.46,0.4605,0.4574,0.4612,0.4604,0.4574,0.4576,0.4525,0.4584,0.4542,0.454,0.4541,0.4418,0.4392,0.43,0.4462,0.446,0.4458,0,0.4877,0.4875,0.4861,0.4854,0.4846,0.482,0.4779,0.4755,0.4736,0.4722,0.4686,0.4644,0.4671,0.4657,0.4671,0.4639,0.456,0.4672,0.4671,0.4649,0.4474,0.445,0.4435,0.4577,0.4575,0.4573,0.4474,0,0.5018,0.4986,0.4949,0.4931,0.4914,0.487,0.4886,0.4865,0.4882,0.4887,0.4835,0.4829,0.4802,0.4788,0.4803,0.4726,0.474,0.4768,0.4812,0.4732,0.47,0.4687,0.486,0.4861,0.4862,0.4863,0,0,0.5132,0.5085,0.5108,0.5069,0.5055,0.5094,0.5046,0.5037,0.5016,0.5006,0.5032,0.497,0.4962,0.4898,0.4874,0.4864,0.485,0.4877,0.4771,0.4761,0.4751,0.4716,0.4703,0.4865,0.4866,0.4866,0.4867,0,0.5186,0.5182,0.5135,0.5127,0.5117,0.5124,0.5113,0.5108,0.5109,0.5059,0.5089,0.506,0.5009,0.4997,0.4984,0.4887,0.4909,0.4877,0.4819,0.4782,0.4771,0.476,0.4723,0.471,0.487,0.4869,0.4869,0,0.5283,0.528,0.526,0.5232,0.5224,0.5191,0.5243,0.5206,0.5181,0.5222,0.5171,0.5169,0.5154,0.5092,0.5064,0.5086,0.4961,0.5003,0.4996,0.4992,0.4957,0.4942,0.493,0.5097,0.5097,0.5098,0,0,0.5327,0.5297,0.53,0.5244,0.5238,0.5248,0.5232,0.5246,0.5233,0.5228,0.5225,0.5211,0.5182,0.5161,0.5134,0.5064,0.5061,0.5031,0.502,0.5011,0.5002,0.4964,0.495,0.5101,0.5101,0.5101,0,0,0.5347,0.5349,0.5368,0.5306,0.5294,0.5292,0.5256,0.5279,0.5256,0.5262,0.5282,0.5279,0.5221,0.5216,0.5253,0.5149,0.5194,0.5185,0.5154,0.514,0.513,0.513,0.5302,0,0,0,0,0,0.5409,0.535,0.5367,0.5358,0.5321,0.5283,0.5278,0.5294,0.5326,0.5297,0.5299,0.5324,0.524,0.5273,0.5263,0.5221,0.5137,0.5131,0.5125,0.5068,0.5054,0.5042,0,0,0,0,0,0,0.5406,0.5396,0.5368,0.5363,0.5355,0.5285,0.5342,0.5344,0.5329,0.5335,0.5323,0.5324,0.5335,0.5279,0.527,0.523,0.5305,0.5134,0.5129,0.5124,0.5063,0.5051,0.5041,0,0,0,0,0,0.5404,0.5395,0.5332,0.5364,0.5357,0.5365,0.5344,0.5347,0.5335,0.5336,0.5337,0.5348,0.5334,0.5327,0.5274,0.5233,0.5311,0.5308,0.5131,0.5127,0.5123,0.5057,0,0,0,0,0,0,0.5402,0.5397,0.5331,0.533,0.5388,0.5369,0.5367,0.5349,0.5337,0.5338,0.5362,0.5367,0.5332,0.5327,0.5322,0.5234,0.5316,0.5313,0.531,0.5128,0.5124,0.5121,0,0,0,0,0,0,0.5401,0.5395,0.533,0.5359,0.5361,0.5373,0.537,0.5327,0.5336,0.5364,0.5368,0.5364,0.5339,0.5327,0.5323,0.5254,0.532,0.5317,0.5314,0.5313,0.5125,0.5122,0,0,0,0,0,0,0.5399,0.5394,0.536,0.5361,0.5363,0.5346,0.5334,0.5295,0.5364,0.5364,0.537,0.5373,0.5337,0.5334,0.5323,0.5256,0.5254,0.532,0.5318,0.5316,0.5315,0,0,0,0,0,0,0,0.5397,0.5429,0.5341,0.5363,0.5365,0.5315,0.5314,0.5314,0.5364,0.5367,0.5369,0.5372,0.5339,0.5335,0.5331,0.5257,0,0,0.532,0.5319,0,0,0,0,0,0,0,0,0.5432,0.543,0.5341,0.5341,0.534,0.5315,0.5314,0.5314,0.5365,0.5367,0.5369,0.5371,0.5338,0.5335,0.5332,0,0,0,0,0,0,0,0,0,0,0,0,0,0,0,0.5341,0.5341,0,0.5314,0.5314,0.5314,0.5365,0.5367,0.5368,0.537,0.5337,0.5335,0.5332,0,0,0,0,0,0,0,0,0,0,0,0,0,0,0,0,0,0,0,0,0,0,0,0,0,0,0,0,0,0,0,0,0,0,0,0,0,0,0,0,0,0,0,0,0,0,0,0,0,0,0,0,0,0,0,0,0,0,0,0,0,0,0,0,0,0,0,0,0]}],[{"header":{"parameterUnit":"kt","parameterCategory":2,"dx":1,"dy":1,"la1":30.253999710083008,"la2":30.299108505249023,"lo1":-89.0895004272461,"lo2":-89.04439544677734,"nx":28,"ny":28,"refTime":"2022-10-16T21:00:00:Z","depth":0,"parameterNumber":2,"parameterNumberName":"V-component_of_WINDS"},"data":[-15.166,-15.1854,-15.1842,-15.2055,-15.2079,-15.2222,-15.2268,-15.2325,-15.2367,-15.2532,-15.2623,-15.2626,-15.2658,-15.2761,-15.2856,-15.2854,-15.2895,-15.2975,-15.2959,-15.2619,-15.2571,-15.2524,-15.2479,-15.2985,-15.2985,-15.3313,-15.3316,-15.3318,-15.1416,-15.1444,-15.1553,-15.165,-15.1742,-15.1659,-15.1726,-15.1809,-15.1936,-15.1988,-15.2077,-15.2219,-15.2327,-15.2331,-15.2432,-15.2518,-15.2482,-15.2546,-15.2539,-15.2545,-15.2182,-15.2134,-15.2574,-15.2574,-15.2574,-15.2574,-15.2574,-15.2574,-15.0968,-15.1084,-15.1135,-15.1252,-15.1297,-15.136,-15.1467,-15.1469,-15.1572,-15.1678,-15.1638,-15.178,-15.1825,-15.1936,-15.1968,-15.2077,-15.2001,-15.2065,-15.2081,-15.2098,-15.212,-15.1652,-15.2092,-15.2091,-15.209,-15.2088,-15.2087,0,-15.0635,-15.0617,-15.0719,-15.0819,-15.0903,-15.0977,-15.1042,-15.1107,-15.1055,-15.1142,-15.1266,-15.1334,-15.1466,-15.1578,-15.1667,-15.1685,-15.1602,-15.1591,-15.1635,-15.1658,-15.1668,-15.1665,-15.1074,-15.1577,-15.1573,-15.157,-15.1567,-15.1566,-15.0182,-15.0318,-15.0363,-15.0437,-15.0468,-15.0587,-15.0654,-15.0598,-15.0672,-15.074,-15.0843,-15.0954,-15.1041,-15.1237,-15.1231,-15.1328,-15.1287,-15.1482,-15.1301,-15.1319,-15.1291,-15.1284,-15.1297,-15.1518,-15.1524,-15.1529,-15.1533,0,-14.9928,-14.9904,-15.0109,-15.0137,-15.0148,-15.0293,-15.0314,-15.0425,-15.0412,-15.0562,-15.0593,-15.0571,-15.0691,-15.0653,-15.078,-15.0756,-15.099,-15.0948,-15.0975,-15.0964,-15.1135,-15.112,-15.1695,-15.1767,-15.1242,-15.1247,-15.1251,0,-14.9532,-14.9711,-14.9663,-14.9783,-14.9981,-14.9919,-15.0115,-15.0123,-15.016,-15.0278,-15.0178,-15.029,-15.0222,-15.0328,-15.0292,-15.0476,-15.0499,-15.0491,-15.0479,-15.0501,-15.0502,-15.0536,-15.0511,-15.0447,-15.0444,-15.0441,-15.0439,0,-14.9138,-14.932,-14.9516,-14.9553,-14.9598,-14.969,-14.9713,-14.9753,-14.9818,-14.9895,-14.9936,-15.0029,-15.008,-15.0153,-15.0106,-14.9985,-15.0329,-15.0153,-15.0321,-15.0323,-15.0398,-15.0394,-15.0914,-15.0435,-15.0434,-15.0433,-15.0432,0,-14.8812,-14.8895,-14.9181,-14.9217,-14.9266,-14.9393,-14.9483,-14.9582,-14.9631,-14.9618,-14.9677,-14.9604,-14.9761,-14.9589,-14.9803,-14.9659,-14.9714,-14.9721,-14.9732,-14.9743,-14.9551,-14.985,-15.0349,-15.0399,-14.9754,-14.9749,-14.9744,0,-14.8368,-14.8649,-14.8598,-14.887,-14.8994,-14.8874,-14.9013,-14.9059,-14.9053,-14.9154,-14.9144,-14.9259,-14.9123,-14.9153,-14.9264,-14.9258,-14.9446,-14.9231,-14.9375,-14.9381,-14.9368,-14.9826,-14.991,-15.0244,-14.9671,-14.9678,-14.9684,0,-14.802,-14.8074,-14.8127,-14.8166,-14.8218,-14.832,-14.848,-14.8581,-14.8652,-14.8713,-14.8845,-14.9004,-14.8908,-14.8958,-14.8907,-14.9025,-14.9316,-14.8904,-14.8904,-14.8981,-14.963,-14.971,-14.9766,-14.9256,-14.9264,-14.9271,-14.9626,0,-14.7537,-14.7672,-14.7811,-14.7899,-14.7972,-14.8138,-14.8098,-14.8179,-14.8124,-14.8111,-14.8302,-14.8326,-14.8426,-14.8478,-14.8423,-14.8706,-14.8652,-14.8547,-14.8375,-14.8676,-14.8792,-14.8839,-14.8207,-14.8201,-14.8197,-14.8193,0,0,-14.7118,-14.7311,-14.7247,-14.7401,-14.7458,-14.7329,-14.751,-14.755,-14.7632,-14.7673,-14.7578,-14.7807,-14.7829,-14.8065,-14.8156,-14.8195,-14.8242,-14.8137,-14.8533,-14.8571,-14.8606,-14.8731,-14.8781,-14.8185,-14.8183,-14.8182,-14.818,0,-14.6933,-14.6964,-14.7146,-14.7185,-14.724,-14.7217,-14.7261,-14.7291,-14.7291,-14.7477,-14.7365,-14.7473,-14.7656,-14.7696,-14.774,-14.8108,-14.8015,-14.8141,-14.8355,-14.8489,-14.8534,-14.8572,-14.8704,-14.8752,-14.8169,-14.817,-14.817,0,-14.6583,-14.6607,-14.669,-14.6814,-14.6847,-14.6976,-14.6787,-14.693,-14.7024,-14.687,-14.7056,-14.7063,-14.7111,-14.7339,-14.7439,-14.7354,-14.7813,-14.7659,-14.7686,-14.7695,-14.7823,-14.7876,-14.7924,-14.7301,-14.7298,-14.7295,0,0,-14.6428,-14.6553,-14.6558,-14.677,-14.68,-14.6769,-14.6831,-14.6782,-14.683,-14.6849,-14.6856,-14.6904,-14.7009,-14.708,-14.7176,-14.7432,-14.7436,-14.7554,-14.7595,-14.7628,-14.7656,-14.7793,-14.7846,-14.7285,-14.7284,-14.7284,0,0,-14.6352,-14.6368,-14.6304,-14.6546,-14.6597,-14.6613,-14.6743,-14.6664,-14.6747,-14.6722,-14.6642,-14.6651,-14.6863,-14.6873,-14.6735,-14.7113,-14.6944,-14.6976,-14.7099,-14.715,-14.719,-14.7183,-14.6542,0,0,0,0,0,-14.6141,-14.6366,-14.6308,-14.6342,-14.6495,-14.6646,-14.6665,-14.6606,-14.6488,-14.6593,-14.6586,-14.6481,-14.6782,-14.6659,-14.6692,-14.6846,-14.7147,-14.7171,-14.7194,-14.7413,-14.7467,-14.7512,0,0,0,0,0,0,-14.6154,-14.6196,-14.6302,-14.6329,-14.6363,-14.6637,-14.6425,-14.6415,-14.6475,-14.6453,-14.6486,-14.6482,-14.6433,-14.6637,-14.6669,-14.6816,-14.6531,-14.7156,-14.7177,-14.7196,-14.7431,-14.7475,-14.7513,0,0,0,0,0,-14.6164,-14.6198,-14.6458,-14.6325,-14.6355,-14.633,-14.6416,-14.6406,-14.6451,-14.6439,-14.6432,-14.6401,-14.6438,-14.646,-14.6655,-14.6803,-14.6509,-14.6521,-14.717,-14.7186,-14.7201,-14.7453,0,0,0,0,0,0,-14.6171,-14.6188,-14.6463,-14.6469,-14.6236,-14.6313,-14.6324,-14.6399,-14.6432,-14.6427,-14.6349,-14.6331,-14.6446,-14.6461,-14.6479,-14.6802,-14.6491,-14.6503,-14.651,-14.7182,-14.7195,-14.7206,0,0,0,0,0,0,-14.6169,-14.6195,-14.6466,-14.6356,-14.635,-14.6298,-14.6308,-14.6463,-14.6434,-14.6339,-14.6325,-14.6341,-14.6418,-14.6463,-14.6476,-14.6721,-14.6477,-14.6489,-14.6497,-14.6502,-14.7193,-14.7203,0,0,0,0,0,0,-14.6179,-14.6201,-14.6354,-14.6349,-14.6343,-14.6411,-14.6434,-14.6593,-14.6343,-14.6339,-14.6319,-14.6308,-14.6423,-14.6434,-14.6475,-14.6715,-14.672,-14.6478,-14.6485,-14.6491,-14.6495,0,0,0,0,0,0,0,-14.6187,-14.6056,-14.6425,-14.6343,-14.6337,-14.653,-14.6532,-14.6534,-14.6341,-14.6331,-14.6321,-14.6312,-14.6411,-14.6424,-14.6437,-14.6711,0,0,-14.6476,-14.6482,0,0,0,0,0,0,0,0,-14.6046,-14.6054,-14.6425,-14.6426,-14.6428,-14.653,-14.6532,-14.6533,-14.6339,-14.6331,-14.6323,-14.6316,-14.6415,-14.6425,-14.6435,0,0,0,0,0,0,0,0,0,0,0,0,0,0,0,-14.6425,-14.6426,0,-14.6531,-14.6532,-14.6533,-14.6338,-14.6332,-14.6325,-14.6319,-14.6418,-14.6426,-14.6435,0,0,0,0,0,0,0,0,0,0,0,0,0,0,0,0,0,0,0,0,0,0,0,0,0,0,0,0,0,0,0,0,0,0,0,0,0,0,0,0,0,0,0,0,0,0,0,0,0,0,0,0,0,0,0,0,0,0,0,0,0,0,0,0,0,0,0,0,0]}]]]